Year,Month,Day,Hour,Minute,Value (Times are PST for temperature in C)
2021,04,18,00,00,12.00
2021,04,18,00,01,11.90
2021,04,18,00,02,11.90
2021,04,18,00,03,11.80
2021,04,18,00,04,11.80
2021,04,18,00,05,11.70
2021,04,18,00,06,11.60
2021,04,18,00,07,11.60
2021,04,18,00,08,11.60
2021,04,18,00,09,11.50
2021,04,18,00,10,11.50
2021,04,18,00,11,11.40
2021,04,18,00,12,11.40
2021,04,18,00,13,11.30
2021,04,18,00,14,11.30
2021,04,18,00,15,11.30
2021,04,18,00,16,11.30
2021,04,18,00,17,11.30
2021,04,18,00,18,11.20
2021,04,18,00,19,11.20
2021,04,18,00,20,11.20
2021,04,18,00,21,11.20
2021,04,18,00,22,11.20
2021,04,18,00,23,11.20
2021,04,18,00,24,11.20
2021,04,18,00,25,11.20
2021,04,18,00,26,11.20
2021,04,18,00,27,11.20
2021,04,18,00,28,11.20
2021,04,18,00,29,11.20
2021,04,18,00,30,11.20
2021,04,18,00,31,11.20
2021,04,18,00,32,11.20
2021,04,18,00,33,11.20
2021,04,18,00,34,11.20
2021,04,18,00,35,11.20
2021,04,18,00,36,11.20
2021,04,18,00,37,11.20
2021,04,18,00,38,11.20
2021,04,18,00,39,11.20
2021,04,18,00,40,11.30
2021,04,18,00,41,11.30
2021,04,18,00,42,11.30
2021,04,18,00,43,11.30
2021,04,18,00,44,11.30
2021,04,18,00,45,11.30
2021,04,18,00,46,11.30
2021,04,18,00,47,11.30
2021,04,18,00,48,11.30
2021,04,18,00,49,11.30
2021,04,18,00,50,11.20
2021,04,18,00,51,11.20
2021,04,18,00,52,11.20
2021,04,18,00,53,11.10
2021,04,18,00,54,11.10
2021,04,18,00,55,11.10
2021,04,18,00,56,11.00
2021,04,18,00,57,11.00
2021,04,18,00,58,11.00
2021,04,18,00,59,11.00
2021,04,18,01,00,11.00
2021,04,18,01,01,10.90
2021,04,18,01,02,10.90
2021,04,18,01,03,10.90
2021,04,18,01,04,10.90
2021,04,18,01,05,10.90
2021,04,18,01,06,10.90
2021,04,18,01,07,10.90
2021,04,18,01,08,11.00
2021,04,18,01,09,11.00
2021,04,18,01,10,11.00
2021,04,18,01,11,11.00
2021,04,18,01,12,11.10
2021,04,18,01,13,11.10
2021,04,18,01,14,11.10
2021,04,18,01,15,11.10
2021,04,18,01,16,11.10
2021,04,18,01,17,11.10
2021,04,18,01,18,11.10
2021,04,18,01,19,11.10
2021,04,18,01,20,11.20
2021,04,18,01,21,11.20
2021,04,18,01,22,11.20
2021,04,18,01,23,11.20
2021,04,18,01,24,11.20
2021,04,18,01,25,11.20
2021,04,18,01,26,11.30
2021,04,18,01,27,11.30
2021,04,18,01,28,11.30
2021,04,18,01,29,11.30
2021,04,18,01,30,11.30
2021,04,18,01,31,11.20
2021,04,18,01,32,11.20
2021,04,18,01,33,11.20
2021,04,18,01,34,11.10
2021,04,18,01,35,11.10
2021,04,18,01,36,11.00
2021,04,18,01,37,11.00
2021,04,18,01,38,10.90
2021,04,18,01,39,10.90
2021,04,18,01,40,10.80
2021,04,18,01,41,10.80
2021,04,18,01,42,10.80
2021,04,18,01,43,10.70
2021,04,18,01,44,10.70
2021,04,18,01,45,10.70
2021,04,18,01,46,10.70
2021,04,18,01,47,10.70
2021,04,18,01,48,10.70
2021,04,18,01,49,10.70
2021,04,18,01,50,10.70
2021,04,18,01,51,10.80
2021,04,18,01,52,10.80
2021,04,18,01,53,10.80
2021,04,18,01,54,10.90
2021,04,18,01,55,10.90
2021,04,18,01,56,10.90
2021,04,18,01,57,10.90
2021,04,18,01,58,10.90
2021,04,18,01,59,10.90
2021,04,18,02,00,10.90
2021,04,18,02,01,10.90
2021,04,18,02,02,10.90
2021,04,18,02,03,10.90
2021,04,18,02,04,10.80
2021,04,18,02,05,10.80
2021,04,18,02,06,10.80
2021,04,18,02,07,10.80
2021,04,18,02,08,10.80
2021,04,18,02,09,10.90
2021,04,18,02,10,10.90
2021,04,18,02,11,10.90
2021,04,18,02,12,10.90
2021,04,18,02,13,10.90
2021,04,18,02,14,10.90
2021,04,18,02,15,10.90
2021,04,18,02,16,10.90
2021,04,18,02,17,11.00
2021,04,18,02,18,11.00
2021,04,18,02,19,11.00
2021,04,18,02,20,11.00
2021,04,18,02,21,11.00
2021,04,18,02,22,10.90
2021,04,18,02,23,10.90
2021,04,18,02,24,10.90
2021,04,18,02,25,10.80
2021,04,18,02,26,10.80
2021,04,18,02,27,10.80
2021,04,18,02,28,10.80
2021,04,18,02,29,10.80
2021,04,18,02,30,10.80
2021,04,18,02,31,10.80
2021,04,18,02,32,10.70
2021,04,18,02,33,10.70
2021,04,18,02,34,10.70
2021,04,18,02,35,10.70
2021,04,18,02,36,10.70
2021,04,18,02,37,10.70
2021,04,18,02,38,10.60
2021,04,18,02,39,10.60
2021,04,18,02,40,10.60
2021,04,18,02,41,10.60
2021,04,18,02,42,10.50
2021,04,18,02,43,10.50
2021,04,18,02,44,10.50
2021,04,18,02,45,10.50
2021,04,18,02,46,10.50
2021,04,18,02,47,10.50
2021,04,18,02,48,10.50
2021,04,18,02,49,10.50
2021,04,18,02,50,10.50
2021,04,18,02,51,10.50
2021,04,18,02,52,10.60
2021,04,18,02,53,10.50
2021,04,18,02,54,10.50
2021,04,18,02,55,10.50
2021,04,18,02,56,10.50
2021,04,18,02,57,10.40
2021,04,18,02,58,10.40
2021,04,18,02,59,10.40
2021,04,18,03,00,10.40
2021,04,18,03,01,10.40
2021,04,18,03,02,10.40
2021,04,18,03,03,10.40
2021,04,18,03,04,10.40
2021,04,18,03,05,10.40
2021,04,18,03,06,10.40
2021,04,18,03,07,10.40
2021,04,18,03,08,10.50
2021,04,18,03,09,10.50
2021,04,18,03,10,10.50
2021,04,18,03,11,10.50
2021,04,18,03,12,10.50
2021,04,18,03,13,10.50
2021,04,18,03,14,10.40
2021,04,18,03,15,10.40
2021,04,18,03,16,10.40
2021,04,18,03,17,10.40
2021,04,18,03,18,10.40
2021,04,18,03,19,10.40
2021,04,18,03,20,10.40
2021,04,18,03,21,10.40
2021,04,18,03,22,10.40
2021,04,18,03,23,10.50
2021,04,18,03,24,10.50
2021,04,18,03,25,10.50
2021,04,18,03,26,10.60
2021,04,18,03,27,10.60
2021,04,18,03,28,10.60
2021,04,18,03,29,10.60
2021,04,18,03,30,10.60
2021,04,18,03,31,10.60
2021,04,18,03,32,10.70
2021,04,18,03,33,10.70
2021,04,18,03,34,10.60
2021,04,18,03,35,10.60
2021,04,18,03,36,10.60
2021,04,18,03,37,10.60
2021,04,18,03,38,10.60
2021,04,18,03,39,10.60
2021,04,18,03,40,10.70
2021,04,18,03,41,10.70
2021,04,18,03,42,10.70
2021,04,18,03,43,10.70
2021,04,18,03,44,10.60
2021,04,18,03,45,10.60
2021,04,18,03,46,10.60
2021,04,18,03,47,10.70
2021,04,18,03,48,10.70
2021,04,18,03,49,10.70
2021,04,18,03,50,10.70
2021,04,18,03,51,10.70
2021,04,18,03,52,10.70
2021,04,18,03,53,10.70
2021,04,18,03,54,10.70
2021,04,18,03,55,10.70
2021,04,18,03,56,10.70
2021,04,18,03,57,10.70
2021,04,18,03,58,10.60
2021,04,18,03,59,10.60
2021,04,18,04,00,10.60
2021,04,18,04,01,10.60
2021,04,18,04,02,10.60
2021,04,18,04,03,10.60
2021,04,18,04,04,10.60
2021,04,18,04,05,10.60
2021,04,18,04,06,10.60
2021,04,18,04,07,10.60
2021,04,18,04,08,10.70
2021,04,18,04,09,10.70
2021,04,18,04,10,10.80
2021,04,18,04,11,10.90
2021,04,18,04,12,11.00
2021,04,18,04,13,11.10
2021,04,18,04,14,11.20
2021,04,18,04,15,11.30
2021,04,18,04,16,11.40
2021,04,18,04,17,11.50
2021,04,18,04,18,11.60
2021,04,18,04,19,11.70
2021,04,18,04,20,11.70
2021,04,18,04,21,11.80
2021,04,18,04,22,11.80
2021,04,18,04,23,11.80
2021,04,18,04,24,11.80
2021,04,18,04,25,11.80
2021,04,18,04,26,11.80
2021,04,18,04,27,11.80
2021,04,18,04,28,11.80
2021,04,18,04,29,11.70
2021,04,18,04,30,11.70
2021,04,18,04,31,11.60
2021,04,18,04,32,11.50
2021,04,18,04,33,11.50
2021,04,18,04,34,11.40
2021,04,18,04,35,11.30
2021,04,18,04,36,11.30
2021,04,18,04,37,11.30
2021,04,18,04,38,11.20
2021,04,18,04,39,11.20
2021,04,18,04,40,11.10
2021,04,18,04,41,11.00
2021,04,18,04,42,11.00
2021,04,18,04,43,10.90
2021,04,18,04,44,10.90
2021,04,18,04,45,10.80
2021,04,18,04,46,10.80
2021,04,18,04,47,10.70
2021,04,18,04,48,10.70
2021,04,18,04,49,10.70
2021,04,18,04,50,10.60
2021,04,18,04,51,10.60
2021,04,18,04,52,10.60
2021,04,18,04,53,10.50
2021,04,18,04,54,10.50
2021,04,18,04,55,10.40
2021,04,18,04,56,10.40
2021,04,18,04,57,10.40
2021,04,18,04,58,10.40
2021,04,18,04,59,10.40
2021,04,18,05,00,10.40
2021,04,18,05,01,10.40
2021,04,18,05,02,10.30
2021,04,18,05,03,10.30
2021,04,18,05,04,10.30
2021,04,18,05,05,10.30
2021,04,18,05,06,10.20
2021,04,18,05,07,10.30
2021,04,18,05,08,10.30
2021,04,18,05,09,10.30
2021,04,18,05,10,10.30
2021,04,18,05,11,10.40
2021,04,18,05,12,10.40
2021,04,18,05,13,10.40
2021,04,18,05,14,10.40
2021,04,18,05,15,10.40
2021,04,18,05,16,10.40
2021,04,18,05,17,10.40
2021,04,18,05,18,10.40
2021,04,18,05,19,10.30
2021,04,18,05,20,10.30
2021,04,18,05,21,10.30
2021,04,18,05,22,10.30
2021,04,18,05,23,10.30
2021,04,18,05,24,10.30
2021,04,18,05,25,10.30
2021,04,18,05,26,10.30
2021,04,18,05,27,10.30
2021,04,18,05,28,10.30
2021,04,18,05,29,10.30
2021,04,18,05,30,10.20
2021,04,18,05,31,10.20
2021,04,18,05,32,10.20
2021,04,18,05,33,10.20
2021,04,18,05,34,10.10
2021,04,18,05,35,10.10
2021,04,18,05,36,10.00
2021,04,18,05,37,10.00
2021,04,18,05,38,9.90
2021,04,18,05,39,9.90
2021,04,18,05,40,9.80
2021,04,18,05,41,9.80
2021,04,18,05,42,9.70
2021,04,18,05,43,9.70
2021,04,18,05,44,9.60
2021,04,18,05,45,9.60
2021,04,18,05,46,9.50
2021,04,18,05,47,9.50
2021,04,18,05,48,9.40
2021,04,18,05,49,9.40
2021,04,18,05,50,9.40
2021,04,18,05,51,9.40
2021,04,18,05,52,9.30
2021,04,18,05,53,9.30
2021,04,18,05,54,9.30
2021,04,18,05,55,9.20
2021,04,18,05,56,9.20
2021,04,18,05,57,9.20
2021,04,18,05,58,9.20
2021,04,18,05,59,9.20
2021,04,18,06,00,9.30
2021,04,18,06,01,9.20
2021,04,18,06,02,9.30
2021,04,18,06,03,9.30
2021,04,18,06,04,9.30
2021,04,18,06,05,9.30
2021,04,18,06,06,9.30
2021,04,18,06,07,9.30
2021,04,18,06,08,9.30
2021,04,18,06,09,9.40
2021,04,18,06,10,9.40
2021,04,18,06,11,9.40
2021,04,18,06,12,9.40
2021,04,18,06,13,9.40
2021,04,18,06,14,9.30
2021,04,18,06,15,9.30
2021,04,18,06,16,9.30
2021,04,18,06,17,9.30
2021,04,18,06,18,9.30
2021,04,18,06,19,9.30
2021,04,18,06,20,9.30
2021,04,18,06,21,9.30
2021,04,18,06,22,9.30
2021,04,18,06,23,9.30
2021,04,18,06,24,9.30
2021,04,18,06,25,9.30
2021,04,18,06,26,9.30
2021,04,18,06,27,9.30
2021,04,18,06,28,9.30
2021,04,18,06,29,9.30
2021,04,18,06,30,9.30
2021,04,18,06,31,9.30
2021,04,18,06,32,9.30
2021,04,18,06,33,9.30
2021,04,18,06,34,9.30
2021,04,18,06,35,9.30
2021,04,18,06,36,9.30
2021,04,18,06,37,9.30
2021,04,18,06,38,9.30
2021,04,18,06,39,9.30
2021,04,18,06,40,9.30
2021,04,18,06,41,9.30
2021,04,18,06,42,9.30
2021,04,18,06,43,9.30
2021,04,18,06,44,9.30
2021,04,18,06,45,9.30
2021,04,18,06,46,9.20
2021,04,18,06,47,9.20
2021,04,18,06,48,9.20
2021,04,18,06,49,9.20
2021,04,18,06,50,9.20
2021,04,18,06,51,9.20
2021,04,18,06,52,9.20
2021,04,18,06,53,9.20
2021,04,18,06,54,9.30
2021,04,18,06,55,9.30
2021,04,18,06,56,9.30
2021,04,18,06,57,9.30
2021,04,18,06,58,9.40
2021,04,18,06,59,9.40
2021,04,18,07,00,9.40
2021,04,18,07,01,9.40
2021,04,18,07,02,9.40
2021,04,18,07,03,9.40
2021,04,18,07,04,9.40
2021,04,18,07,05,9.50
2021,04,18,07,06,9.50
2021,04,18,07,07,9.50
2021,04,18,07,08,9.50
2021,04,18,07,09,9.50
2021,04,18,07,10,9.60
2021,04,18,07,11,9.60
2021,04,18,07,12,9.60
2021,04,18,07,13,9.60
2021,04,18,07,14,9.70
2021,04,18,07,15,9.70
2021,04,18,07,16,9.70
2021,04,18,07,17,9.70
2021,04,18,07,18,9.80
2021,04,18,07,19,9.80
2021,04,18,07,20,9.80
2021,04,18,07,21,9.80
2021,04,18,07,22,9.90
2021,04,18,07,23,9.90
2021,04,18,07,24,9.90
2021,04,18,07,25,10.00
2021,04,18,07,26,10.00
2021,04,18,07,27,10.10
2021,04,18,07,28,10.10
2021,04,18,07,29,10.20
2021,04,18,07,30,10.20
2021,04,18,07,31,10.30
2021,04,18,07,32,10.30
2021,04,18,07,33,10.30
2021,04,18,07,34,10.40
2021,04,18,07,35,10.40
2021,04,18,07,36,10.40
2021,04,18,07,37,10.50
2021,04,18,07,38,10.50
2021,04,18,07,39,10.60
2021,04,18,07,40,10.60
2021,04,18,07,41,10.60
2021,04,18,07,42,10.70
2021,04,18,07,43,10.70
2021,04,18,07,44,10.70
2021,04,18,07,45,10.80
2021,04,18,07,46,10.80
2021,04,18,07,47,10.80
2021,04,18,07,48,10.90
2021,04,18,07,49,10.90
2021,04,18,07,50,10.90
2021,04,18,07,51,11.00
2021,04,18,07,52,11.10
2021,04,18,07,53,11.10
2021,04,18,07,54,11.20
2021,04,18,07,55,11.20
2021,04,18,07,56,11.30
2021,04,18,07,57,11.30
2021,04,18,07,58,11.40
2021,04,18,07,59,11.40
2021,04,18,08,00,11.40
2021,04,18,08,01,11.50
2021,04,18,08,02,11.50
2021,04,18,08,03,11.60
2021,04,18,08,04,11.70
2021,04,18,08,05,11.70
2021,04,18,08,06,11.70
2021,04,18,08,07,11.80
2021,04,18,08,08,11.80
2021,04,18,08,09,11.80
2021,04,18,08,10,11.90
2021,04,18,08,11,11.90
2021,04,18,08,12,11.90
2021,04,18,08,13,12.00
2021,04,18,08,14,12.00
2021,04,18,08,15,12.10
2021,04,18,08,16,12.10
2021,04,18,08,17,12.20
2021,04,18,08,18,12.20
2021,04,18,08,19,12.20
2021,04,18,08,20,12.30
2021,04,18,08,21,12.30
2021,04,18,08,22,12.40
2021,04,18,08,23,12.40
2021,04,18,08,24,12.40
2021,04,18,08,25,12.50
2021,04,18,08,26,12.50
2021,04,18,08,27,12.60
2021,04,18,08,28,12.60
2021,04,18,08,29,12.60
2021,04,18,08,30,12.70
2021,04,18,08,31,12.70
2021,04,18,08,32,12.70
2021,04,18,08,33,12.80
2021,04,18,08,34,12.80
2021,04,18,08,35,12.80
2021,04,18,08,36,12.80
2021,04,18,08,37,12.90
2021,04,18,08,38,12.90
2021,04,18,08,39,12.90
2021,04,18,08,40,13.00
2021,04,18,08,41,13.00
2021,04,18,08,42,13.10
2021,04,18,08,43,13.10
2021,04,18,08,44,13.10
2021,04,18,08,45,13.20
2021,04,18,08,46,13.20
2021,04,18,08,47,13.30
2021,04,18,08,48,13.30
2021,04,18,08,49,13.40
2021,04,18,08,50,13.50
2021,04,18,08,51,13.50
2021,04,18,08,52,13.60
2021,04,18,08,53,13.60
2021,04,18,08,54,13.70
2021,04,18,08,55,13.70
2021,04,18,08,56,13.80
2021,04,18,08,57,13.90
2021,04,18,08,58,13.90
2021,04,18,08,59,14.00
2021,04,18,09,00,14.00
2021,04,18,09,01,14.10
2021,04,18,09,02,14.20
2021,04,18,09,03,14.30
2021,04,18,09,04,14.50
2021,04,18,09,05,14.70
2021,04,18,09,06,14.80
2021,04,18,09,07,14.90
2021,04,18,09,08,15.00
2021,04,18,09,09,15.10
2021,04,18,09,10,15.10
2021,04,18,09,11,15.10
2021,04,18,09,12,15.20
2021,04,18,09,13,15.30
2021,04,18,09,14,15.40
2021,04,18,09,15,15.50
2021,04,18,09,16,15.60
2021,04,18,09,17,15.70
2021,04,18,09,18,15.80
2021,04,18,09,19,15.80
2021,04,18,09,20,15.90
2021,04,18,09,21,15.90
2021,04,18,09,22,15.90
2021,04,18,09,23,16.00
2021,04,18,09,24,16.00
2021,04,18,09,25,16.00
2021,04,18,09,26,16.00
2021,04,18,09,27,16.10
2021,04,18,09,28,16.10
2021,04,18,09,29,16.20
2021,04,18,09,30,16.20
2021,04,18,09,31,16.30
2021,04,18,09,32,16.30
2021,04,18,09,33,16.40
2021,04,18,09,34,16.40
2021,04,18,09,35,16.40
2021,04,18,09,36,16.40
2021,04,18,09,37,16.40
2021,04,18,09,38,16.40
2021,04,18,09,39,16.40
2021,04,18,09,40,16.50
2021,04,18,09,41,16.50
2021,04,18,09,42,16.60
2021,04,18,09,43,16.60
2021,04,18,09,44,16.60
2021,04,18,09,45,16.70
2021,04,18,09,46,16.70
2021,04,18,09,47,16.70
2021,04,18,09,48,16.70
2021,04,18,09,49,16.80
2021,04,18,09,50,16.80
2021,04,18,09,51,16.90
2021,04,18,09,52,16.90
2021,04,18,09,53,17.00
2021,04,18,09,54,17.20
2021,04,18,09,55,17.30
2021,04,18,09,56,17.50
2021,04,18,09,57,17.60
2021,04,18,09,58,17.70
2021,04,18,09,59,17.80
2021,04,18,10,00,17.80
2021,04,18,10,01,17.80
2021,04,18,10,02,17.80
2021,04,18,10,03,17.90
2021,04,18,10,04,17.90
2021,04,18,10,05,17.90
2021,04,18,10,06,17.90
2021,04,18,10,07,17.90
2021,04,18,10,08,17.80
2021,04,18,10,09,17.70
2021,04,18,10,10,17.70
2021,04,18,10,11,17.60
2021,04,18,10,12,17.60
2021,04,18,10,13,17.50
2021,04,18,10,14,17.30
2021,04,18,10,15,17.30
2021,04,18,10,16,17.20
2021,04,18,10,17,17.20
2021,04,18,10,18,17.20
2021,04,18,10,19,17.20
2021,04,18,10,20,17.20
2021,04,18,10,21,17.30
2021,04,18,10,22,17.30
2021,04,18,10,23,17.40
2021,04,18,10,24,17.40
2021,04,18,10,25,17.50
2021,04,18,10,26,17.60
2021,04,18,10,27,17.60
2021,04,18,10,28,17.70
2021,04,18,10,29,17.70
2021,04,18,10,30,17.80
2021,04,18,10,31,17.80
2021,04,18,10,32,17.70
2021,04,18,10,33,17.70
2021,04,18,10,34,17.70
2021,04,18,10,35,17.60
2021,04,18,10,36,17.60
2021,04,18,10,37,17.60
2021,04,18,10,38,17.60
2021,04,18,10,39,17.70
2021,04,18,10,40,17.70
2021,04,18,10,41,17.70
2021,04,18,10,42,17.70
2021,04,18,10,43,17.70
2021,04,18,10,44,17.70
2021,04,18,10,45,17.60
2021,04,18,10,46,17.60
2021,04,18,10,47,17.70
2021,04,18,10,48,17.80
2021,04,18,10,49,17.80
2021,04,18,10,50,17.80
2021,04,18,10,51,17.80
2021,04,18,10,52,17.70
2021,04,18,10,53,17.60
2021,04,18,10,54,17.50
2021,04,18,10,55,17.50
2021,04,18,10,56,17.50
2021,04,18,10,57,17.50
2021,04,18,10,58,17.50
2021,04,18,10,59,17.50
2021,04,18,11,00,17.50
2021,04,18,11,01,17.50
2021,04,18,11,02,17.40
2021,04,18,11,03,17.40
2021,04,18,11,04,17.30
2021,04,18,11,05,17.30
2021,04,18,11,06,17.30
2021,04,18,11,07,17.30
2021,04,18,11,08,17.30
2021,04,18,11,09,17.30
2021,04,18,11,10,17.30
2021,04,18,11,11,17.40
2021,04,18,11,12,17.40
2021,04,18,11,13,17.40
2021,04,18,11,14,17.50
2021,04,18,11,15,17.50
2021,04,18,11,16,17.60
2021,04,18,11,17,17.60
2021,04,18,11,18,17.60
2021,04,18,11,19,17.70
2021,04,18,11,20,17.70
2021,04,18,11,21,17.80
2021,04,18,11,22,17.80
2021,04,18,11,23,17.90
2021,04,18,11,24,18.00
2021,04,18,11,25,17.90
2021,04,18,11,26,17.90
2021,04,18,11,27,17.90
2021,04,18,11,28,17.90
2021,04,18,11,29,18.00
2021,04,18,11,30,18.10
2021,04,18,11,31,18.20
2021,04,18,11,32,18.20
2021,04,18,11,33,18.20
2021,04,18,11,34,18.20
2021,04,18,11,35,18.20
2021,04,18,11,36,18.20
2021,04,18,11,37,18.20
2021,04,18,11,38,18.20
2021,04,18,11,39,18.20
2021,04,18,11,40,18.10
2021,04,18,11,41,18.10
2021,04,18,11,42,18.10
2021,04,18,11,43,18.10
2021,04,18,11,44,18.10
2021,04,18,11,45,18.10
2021,04,18,11,46,18.10
2021,04,18,11,47,18.20
2021,04,18,11,48,18.10
2021,04,18,11,49,18.10
2021,04,18,11,50,18.00
2021,04,18,11,51,18.00
2021,04,18,11,52,17.90
2021,04,18,11,53,17.90
2021,04,18,11,54,18.00
2021,04,18,11,55,18.10
2021,04,18,11,56,18.10
2021,04,18,11,57,18.10
2021,04,18,11,58,18.10
2021,04,18,11,59,18.10
2021,04,18,12,00,18.20
2021,04,18,12,01,18.20
2021,04,18,12,02,18.20
2021,04,18,12,03,18.20
2021,04,18,12,04,18.20
2021,04,18,12,05,18.20
2021,04,18,12,06,18.30
2021,04,18,12,07,18.30
2021,04,18,12,08,18.40
2021,04,18,12,09,18.50
2021,04,18,12,10,18.60
2021,04,18,12,11,18.70
2021,04,18,12,12,18.60
2021,04,18,12,13,18.60
2021,04,18,12,14,18.60
2021,04,18,12,15,18.50
2021,04,18,12,16,18.50
2021,04,18,12,17,18.50
2021,04,18,12,18,18.40
2021,04,18,12,19,18.40
2021,04,18,12,20,18.40
2021,04,18,12,21,18.50
2021,04,18,12,22,18.50
2021,04,18,12,23,18.60
2021,04,18,12,24,18.60
2021,04,18,12,25,18.70
2021,04,18,12,26,18.70
2021,04,18,12,27,18.70
2021,04,18,12,28,18.70
2021,04,18,12,29,18.70
2021,04,18,12,30,18.60
2021,04,18,12,31,18.60
2021,04,18,12,32,18.60
2021,04,18,12,33,18.50
2021,04,18,12,34,18.50
2021,04,18,12,35,18.50
2021,04,18,12,36,18.50
2021,04,18,12,37,18.50
2021,04,18,12,38,18.60
2021,04,18,12,39,18.60
2021,04,18,12,40,18.60
2021,04,18,12,41,18.70
2021,04,18,12,42,18.80
2021,04,18,12,43,18.80
2021,04,18,12,44,18.70
2021,04,18,12,45,18.70
2021,04,18,12,46,18.70
2021,04,18,12,47,18.70
2021,04,18,12,48,18.70
2021,04,18,12,49,18.60
2021,04,18,12,50,18.50
2021,04,18,12,51,18.40
2021,04,18,12,52,18.40
2021,04,18,12,53,18.40
2021,04,18,12,54,18.40
2021,04,18,12,55,18.40
2021,04,18,12,56,18.40
2021,04,18,12,57,18.50
2021,04,18,12,58,18.60
2021,04,18,12,59,18.60
2021,04,18,13,00,18.70
2021,04,18,13,01,18.80
2021,04,18,13,02,18.80
2021,04,18,13,03,18.80
2021,04,18,13,04,18.80
2021,04,18,13,05,18.70
2021,04,18,13,06,18.70
2021,04,18,13,07,18.80
2021,04,18,13,08,18.80
2021,04,18,13,09,18.90
2021,04,18,13,10,18.90
2021,04,18,13,11,18.80
2021,04,18,13,12,18.80
2021,04,18,13,13,18.80
2021,04,18,13,14,18.80
2021,04,18,13,15,18.70
2021,04,18,13,16,18.70
2021,04,18,13,17,18.70
2021,04,18,13,18,18.70
2021,04,18,13,19,18.70
2021,04,18,13,20,18.70
2021,04,18,13,21,18.80
2021,04,18,13,22,18.80
2021,04,18,13,23,18.90
2021,04,18,13,24,18.90
2021,04,18,13,25,19.00
2021,04,18,13,26,19.10
2021,04,18,13,27,19.10
2021,04,18,13,28,19.20
2021,04,18,13,29,19.20
2021,04,18,13,30,19.20
2021,04,18,13,31,19.20
2021,04,18,13,32,19.20
2021,04,18,13,33,19.20
2021,04,18,13,34,19.20
2021,04,18,13,35,19.20
2021,04,18,13,36,19.20
2021,04,18,13,37,19.20
2021,04,18,13,38,19.20
2021,04,18,13,39,19.10
2021,04,18,13,40,19.10
2021,04,18,13,41,19.10
2021,04,18,13,42,19.10
2021,04,18,13,43,19.10
2021,04,18,13,44,19.10
2021,04,18,13,45,19.00
2021,04,18,13,46,19.10
2021,04,18,13,47,19.20
2021,04,18,13,48,19.20
2021,04,18,13,49,19.30
2021,04,18,13,50,19.30
2021,04,18,13,51,19.30
2021,04,18,13,52,19.30
2021,04,18,13,53,19.20
2021,04,18,13,54,19.20
2021,04,18,13,55,19.10
2021,04,18,13,56,19.00
2021,04,18,13,57,19.00
2021,04,18,13,58,18.90
2021,04,18,13,59,18.90
2021,04,18,14,00,18.80
2021,04,18,14,01,18.70
2021,04,18,14,02,18.60
2021,04,18,14,03,18.60
2021,04,18,14,04,18.60
2021,04,18,14,05,18.60
2021,04,18,14,06,18.70
2021,04,18,14,07,18.80
2021,04,18,14,08,18.80
2021,04,18,14,09,18.80
2021,04,18,14,10,18.80
2021,04,18,14,11,18.70
2021,04,18,14,12,18.70
2021,04,18,14,13,18.70
2021,04,18,14,14,18.70
2021,04,18,14,15,18.70
2021,04,18,14,16,18.70
2021,04,18,14,17,18.80
2021,04,18,14,18,18.80
2021,04,18,14,19,18.80
2021,04,18,14,20,18.90
2021,04,18,14,21,19.00
2021,04,18,14,22,19.10
2021,04,18,14,23,19.20
2021,04,18,14,24,19.20
2021,04,18,14,25,19.30
2021,04,18,14,26,19.40
2021,04,18,14,27,19.40
2021,04,18,14,28,19.40
2021,04,18,14,29,19.50
2021,04,18,14,30,19.50
2021,04,18,14,31,19.40
2021,04,18,14,32,19.40
2021,04,18,14,33,19.40
2021,04,18,14,34,19.40
2021,04,18,14,35,19.40
2021,04,18,14,36,19.30
2021,04,18,14,37,19.20
2021,04,18,14,38,19.10
2021,04,18,14,39,18.90
2021,04,18,14,40,18.80
2021,04,18,14,41,18.80
2021,04,18,14,42,18.70
2021,04,18,14,43,18.70
2021,04,18,14,44,18.50
2021,04,18,14,45,18.50
2021,04,18,14,46,18.40
2021,04,18,14,47,18.30
2021,04,18,14,48,18.20
2021,04,18,14,49,18.10
2021,04,18,14,50,18.00
2021,04,18,14,51,17.90
2021,04,18,14,52,17.90
2021,04,18,14,53,17.80
2021,04,18,14,54,17.60
2021,04,18,14,55,17.50
2021,04,18,14,56,17.50
2021,04,18,14,57,17.40
2021,04,18,14,58,17.40
2021,04,18,14,59,17.40
2021,04,18,15,00,17.40
2021,04,18,15,01,17.50
2021,04,18,15,02,17.60
2021,04,18,15,03,17.70
2021,04,18,15,04,17.70
2021,04,18,15,05,17.70
2021,04,18,15,06,17.80
2021,04,18,15,07,17.80
2021,04,18,15,08,17.90
2021,04,18,15,09,17.90
2021,04,18,15,10,17.90
2021,04,18,15,11,17.80
2021,04,18,15,12,17.70
2021,04,18,15,13,17.70
2021,04,18,15,14,17.70
2021,04,18,15,15,17.70
2021,04,18,15,16,17.80
2021,04,18,15,17,17.80
2021,04,18,15,18,17.80
2021,04,18,15,19,17.90
2021,04,18,15,20,17.90
2021,04,18,15,21,18.00
2021,04,18,15,22,18.10
2021,04,18,15,23,18.20
2021,04,18,15,24,18.30
2021,04,18,15,25,18.30
2021,04,18,15,26,18.30
2021,04,18,15,27,18.30
2021,04,18,15,28,18.30
2021,04,18,15,29,18.30
2021,04,18,15,30,18.30
2021,04,18,15,31,18.30
2021,04,18,15,32,18.30
2021,04,18,15,33,18.30
2021,04,18,15,34,18.30
2021,04,18,15,35,18.40
2021,04,18,15,36,18.50
2021,04,18,15,37,18.60
2021,04,18,15,38,18.70
2021,04,18,15,39,18.70
2021,04,18,15,40,18.70
2021,04,18,15,41,18.70
2021,04,18,15,42,18.70
2021,04,18,15,43,18.70
2021,04,18,15,44,18.60
2021,04,18,15,45,18.60
2021,04,18,15,46,18.60
2021,04,18,15,47,18.50
2021,04,18,15,48,18.50
2021,04,18,15,49,18.50
2021,04,18,15,50,18.60
2021,04,18,15,51,18.60
2021,04,18,15,52,18.60
2021,04,18,15,53,18.50
2021,04,18,15,54,18.50
2021,04,18,15,55,18.60
2021,04,18,15,56,18.60
2021,04,18,15,57,18.70
2021,04,18,15,58,18.70
2021,04,18,15,59,18.70
2021,04,18,16,00,18.80
2021,04,18,16,01,18.80
2021,04,18,16,02,18.80
2021,04,18,16,03,18.80
2021,04,18,16,04,18.80
2021,04,18,16,05,18.80
2021,04,18,16,06,18.80
2021,04,18,16,07,18.80
2021,04,18,16,08,18.80
2021,04,18,16,09,18.80
2021,04,18,16,10,18.80
2021,04,18,16,11,18.70
2021,04,18,16,12,18.70
2021,04,18,16,13,18.70
2021,04,18,16,14,18.70
2021,04,18,16,15,18.60
2021,04,18,16,16,18.50
2021,04,18,16,17,18.40
2021,04,18,16,18,18.40
2021,04,18,16,19,18.50
2021,04,18,16,20,18.60
2021,04,18,16,21,18.60
2021,04,18,16,22,18.50
2021,04,18,16,23,18.50
2021,04,18,16,24,18.40
2021,04,18,16,25,18.40
2021,04,18,16,26,18.40
2021,04,18,16,27,18.40
2021,04,18,16,28,18.50
2021,04,18,16,29,18.50
2021,04,18,16,30,18.60
2021,04,18,16,31,18.60
2021,04,18,16,32,18.70
2021,04,18,16,33,18.70
2021,04,18,16,34,18.70
2021,04,18,16,35,18.70
2021,04,18,16,36,18.60
2021,04,18,16,37,18.60
2021,04,18,16,38,18.70
2021,04,18,16,39,18.70
2021,04,18,16,40,18.70
2021,04,18,16,41,18.70
2021,04,18,16,42,18.70
2021,04,18,16,43,18.70
2021,04,18,16,44,18.80
2021,04,18,16,45,18.80
2021,04,18,16,46,18.80
2021,04,18,16,47,18.90
2021,04,18,16,48,18.90
2021,04,18,16,49,19.00
2021,04,18,16,50,19.10
2021,04,18,16,51,19.10
2021,04,18,16,52,19.20
2021,04,18,16,53,19.20
2021,04,18,16,54,19.20
2021,04,18,16,55,19.30
2021,04,18,16,56,19.30
2021,04,18,16,57,19.30
2021,04,18,16,58,19.30
2021,04,18,16,59,19.30
2021,04,18,17,00,19.30
2021,04,18,17,01,19.20
2021,04,18,17,02,19.20
2021,04,18,17,03,19.30
2021,04,18,17,04,19.30
2021,04,18,17,05,19.30
2021,04,18,17,06,19.30
2021,04,18,17,07,19.40
2021,04,18,17,08,19.40
2021,04,18,17,09,19.40
2021,04,18,17,10,19.50
2021,04,18,17,11,19.40
2021,04,18,17,12,19.40
2021,04,18,17,13,19.40
2021,04,18,17,14,19.40
2021,04,18,17,15,19.40
2021,04,18,17,16,19.50
2021,04,18,17,17,19.50
2021,04,18,17,18,19.60
2021,04,18,17,19,19.60
2021,04,18,17,20,19.60
2021,04,18,17,21,19.60
2021,04,18,17,22,19.60
2021,04,18,17,23,19.60
2021,04,18,17,24,19.60